[[{"header":{"parameterUnit":"m.s-1","parameterCategory":2,"la1":30.2991,"la2":30.254,"lo1":-89.0895,"lo2":-89.0444,"dy":0.0017,"dx":0.0017,"nx":28,"ny":28,"refTime":"2025-05-15T09:00:00:Z","depth":"0","parameterNumber":2,"parameterNumberName":"U-component_of_CURRENTS"},"data":[0,0,0,0,0,0,0,0,0,0,0,0,0,0,0,0,0,0,0,0,0,0,0,0,0,0,0,0,0,0,0,0,0,0,0,0,0,0,0,0,0,0,0,0,0,0,0,0,0,0,0,0,0,0,0,0,0,0,0.3138,0.314,0,0.3314,0.3316,0.3318,0.3328,0.3325,0.3323,0.3321,0.3359,0.3362,0.3364,0,0,0,0,0,0,0,0,0,0,0,0,0,0.2912,0.2916,0.3138,0.314,0.3142,0.3313,0.3316,0.3318,0.3328,0.3325,0.3323,0.3321,0.3358,0.3361,0.3365,0,0,0,0,0,0,0,0,0,0,0,0,0,0.3042,0.2917,0.3138,0.3167,0.3172,0.3313,0.3316,0.3319,0.3328,0.3325,0.3322,0.3319,0.3357,0.3361,0.3365,0.3455,0,0,0.3379,0.3381,0,0,0,0,0,0,0,0,0.3034,0.305,0.3161,0.3166,0.3171,0.3295,0.325,0.3357,0.3329,0.327,0.3321,0.3318,0.3327,0.3333,0.3376,0.3456,0.3458,0.3379,0.3382,0.3384,0.3385,0,0,0,0,0,0,0,0.3025,0.3043,0.3208,0.3163,0.3169,0.3206,0.3221,0.3272,0.3311,0.3275,0.3276,0.3295,0.3328,0.3372,0.3376,0.3459,0.3379,0.3383,0.3386,0.3387,0.3542,0.3543,0,0,0,0,0,0,0.3001,0.3035,0.3203,0.3213,0.3093,0.3213,0.3228,0.3259,0.3314,0.332,0.3298,0.3295,0.3366,0.3371,0.3378,0.3441,0.3384,0.3388,0.339,0.354,0.3542,0.3544,0,0,0,0,0,0,0.2996,0.3015,0.3195,0.3126,0.3152,0.3219,0.3254,0.3264,0.3298,0.3333,0.3336,0.3319,0.3364,0.3371,0.3417,0.3443,0.339,0.3394,0.3539,0.3541,0.3543,0.3595,0,0,0,0,0,0,0.2989,0.3013,0.3037,0.3125,0.3155,0.329,0.3257,0.3269,0.3315,0.3313,0.3353,0.3354,0.3362,0.341,0.3421,0.3448,0.3397,0.3537,0.354,0.3542,0.3592,0.3599,0.3605,0,0,0,0,0,0.2981,0.3051,0.3037,0.3058,0.3183,0.3292,0.3312,0.3348,0.3319,0.3361,0.3367,0.3352,0.3434,0.3416,0.3428,0.3457,0.3535,0.3539,0.3542,0.3589,0.3598,0.3605,0,0,0,0,0,0,0.2981,0.3061,0.3048,0.3139,0.3201,0.3293,0.3349,0.3354,0.3401,0.3385,0.3388,0.3393,0.344,0.3447,0.3426,0.3507,0.3477,0.3483,0.3508,0.3517,0.3524,0.3549,0.3401,0,0,0,0,0,0.2986,0.3045,0.3116,0.3184,0.3219,0.3274,0.3322,0.3341,0.339,0.3407,0.3424,0.3439,0.3473,0.3489,0.3522,0.3583,0.3631,0.3603,0.3609,0.3615,0.3644,0.3747,0.3767,0.3555,0.3555,0.3555,0,0,0.3001,0.3053,0.3085,0.3186,0.3236,0.3294,0.3297,0.3378,0.3407,0.3405,0.3449,0.3472,0.3494,0.3551,0.3572,0.3555,0.3701,0.3619,0.3624,0.365,0.3753,0.3774,0.3793,0.3557,0.3556,0.3556,0,0,0.3065,0.3109,0.317,0.3223,0.3299,0.3332,0.3347,0.3427,0.3447,0.3503,0.3495,0.3542,0.3586,0.3621,0.3637,0.3709,0.3734,0.37,0.376,0.386,0.3879,0.3896,0.3985,0.401,0.3702,0.3702,0.3702,0,0.3073,0.3151,0.3208,0.3272,0.331,0.3337,0.3392,0.3435,0.3507,0.3543,0.3513,0.3616,0.3626,0.3712,0.3726,0.3728,0.3784,0.3724,0.3871,0.3889,0.3906,0.3993,0.402,0.3705,0.3705,0.3704,0.3704,0,0.3175,0.322,0.3271,0.3331,0.3387,0.3452,0.3495,0.354,0.3545,0.3586,0.3673,0.371,0.3775,0.3776,0.3773,0.3893,0.3895,0.3869,0.3853,0.3931,0.4017,0.4044,0.3709,0.3708,0.3707,0.3706,0,0,0.323,0.3317,0.3328,0.3343,0.3418,0.3475,0.3527,0.3607,0.3659,0.3709,0.3797,0.3852,0.3884,0.3908,0.3919,0.3998,0.4154,0.3987,0.3991,0.4081,0.4385,0.4297,0.4317,0.4157,0.4162,0.4166,0.4398,0,0.3278,0.3369,0.341,0.3471,0.3514,0.355,0.3608,0.3676,0.3729,0.3823,0.388,0.3968,0.3927,0.3977,0.4051,0.4142,0.4229,0.4095,0.4292,0.4298,0.4215,0.4347,0.4099,0.4277,0.4424,0.4429,0.4432,0,0.3358,0.3402,0.3467,0.3526,0.3555,0.3594,0.3691,0.3753,0.388,0.3932,0.4028,0.4082,0.4219,0.4161,0.437,0.4289,0.4349,0.4402,0.4411,0.4335,0.4261,0.4223,0.432,0.4212,0.4474,0.447,0.4467,0,0.3358,0.3441,0.3478,0.3502,0.3583,0.3623,0.3674,0.3791,0.387,0.4021,0.4107,0.4247,0.4338,0.4454,0.454,0.4486,0.476,0.4697,0.4676,0.467,0.4502,0.4472,0.4522,0.4854,0.4853,0.4853,0.4852,0,0.3392,0.3424,0.3477,0.35,0.3577,0.3632,0.3736,0.3816,0.3952,0.4062,0.417,0.4286,0.4418,0.4564,0.4628,0.4748,0.4838,0.4737,0.4743,0.4509,0.4479,0.4407,0.4375,0.4861,0.4859,0.4858,0.4856,0,0.3389,0.3417,0.3476,0.3551,0.3576,0.3641,0.376,0.3831,0.3971,0.4121,0.4183,0.437,0.456,0.4679,0.4878,0.4855,0.4849,0.4985,0.4694,0.466,0.4499,0.4478,0.4446,0.4318,0.5028,0.5028,0.5027,0,0.3389,0.3414,0.3505,0.3536,0.3567,0.3652,0.3702,0.383,0.3906,0.4162,0.423,0.4462,0.4581,0.4844,0.4864,0.4986,0.4852,0.4809,0.465,0.4503,0.4488,0.433,0.4213,0.446,0.4455,0.4451,0.4447,0,0.3394,0.3431,0.3478,0.353,0.3574,0.3635,0.3715,0.3771,0.3925,0.4057,0.4226,0.4356,0.4583,0.4594,0.4733,0.4757,0.4562,0.4726,0.4658,0.4136,0.3888,0.3759,0.4299,0.441,0.4414,0.4417,0.4419,0.442,0.3398,0.3427,0.3466,0.3512,0.355,0.356,0.3562,0.3643,0.3737,0.3858,0.4086,0.4175,0.4313,0.4467,0.4471,0.4299,0.4344,0.4163,0.4186,0.4068,0.3822,0.4281,0.4332,0.4335,0.4338,0.434,0.4342,0,0.3358,0.3377,0.3425,0.3442,0.3418,0.3474,0.3507,0.3464,0.348,0.3642,0.3757,0.3848,0.3878,0.3951,0.3907,0.3782,0.3578,0.3693,0.3409,0.3348,0.3836,0.3682,0.3488,0.3488,0.3488,0.3489,0.3489,0.3489,0.3336,0.3334,0.3341,0.3273,0.3272,0.317,0.3147,0.3118,0.3164,0.3178,0.3201,0.3341,0.3569,0.366,0.3519,0.3413,0.3184,0.3027,0.3101,0.3435,0.3478,0.3519,0.3366,0.3109,0.3109,0.2389,0.2384,0.238]},{"header":{"parameterUnit":"m.s-1","parameterCategory":2,"la1":30.2991,"la2":30.254,"lo1":-89.0895,"lo2":-89.0444,"dy":0.0017,"dx":0.0017,"nx":28,"ny":28,"refTime":"2025-05-15T09:00:00:Z","depth":"0","parameterNumber":3,"parameterNumberName":"V-component_of_CURRENTS"},"data":[0,0,0,0,0,0,0,0,0,0,0,0,0,0,0,0,0,0,0,0,0,0,0,0,0,0,0,0,0,0,0,0,0,0,0,0,0,0,0,0,0,0,0,0,0,0,0,0,0,0,0,0,0,0,0,0,0,0,0.0115,0.0115,0,0.0091,0.009,0.009,0.0054,0.0054,0.0053,0.0053,-0.0037,-0.0039,-0.004,0,0,0,0,0,0,0,0,0,0,0,0,0,0.0076,0.0078,0.0115,0.0115,0.0114,0.0091,0.009,0.009,0.0054,0.0054,0.0053,0.0052,-0.0036,-0.0038,-0.0041,0,0,0,0,0,0,0,0,0,0,0,0,0,0.0076,0.0078,0.0115,0.0095,0.0092,0.0091,0.009,0.009,0.0055,0.0054,0.0053,0.0052,-0.0035,-0.0038,-0.0041,-0.0042,0,0,-0.0049,-0.0051,0,0,0,0,0,0,0,0,0.0076,0.0077,0.0098,0.0096,0.0094,0.0075,0.0044,0.0043,0.0055,0.0068,0.0053,0.0052,-0.0004,-0.0009,-0.0013,-0.0046,-0.005,-0.005,-0.0051,-0.0053,-0.0053,0,0,0,0,0,0,0,0.0076,0.0078,0.0104,0.0098,0.0095,0.0068,0.0068,0.0044,0.0035,0.0067,0.0064,0.0063,-0.0006,-0.001,-0.0015,-0.0051,-0.005,-0.0052,-0.0054,-0.0055,-0.0057,-0.0055,0,0,0,0,0,0,0.0085,0.0079,0.0105,0.0104,0.0084,0.007,0.0069,0.0081,0.0036,0.003,0.0064,0.0062,-0.0004,-0.0012,-0.0019,0.0009,-0.0053,-0.0055,-0.0057,-0.0058,-0.0056,-0.0054,0,0,0,0,0,0,0.0085,0.0088,0.0106,0.009,0.0091,0.0072,0.0086,0.0081,0.0076,0.0035,0.0027,0.0062,-0.0005,-0.0015,-0.0027,0.0004,-0.0057,-0.0059,-0.006,-0.0058,-0.0055,0.0044,0,0,0,0,0,0,0.0084,0.0089,0.0097,0.0091,0.0092,0.0115,0.0086,0.0082,0.0077,0.0073,0.0031,0.0022,-0.0007,-0.0022,-0.003,-0.0001,-0.0061,-0.0062,-0.0059,-0.0056,0.0038,0.0049,0.0059,0,0,0,0,0,0.0083,0.0107,0.0098,0.0101,0.0106,0.0116,0.0114,0.0096,0.0078,0.0085,0.006,0.0023,-0.0008,-0.0024,-0.0033,-0.0004,-0.0064,-0.006,-0.0056,0.0034,0.0047,0.0058,0,0,0,0,0,0,0.0093,0.0106,0.0096,0.0121,0.012,0.011,0.0114,0.0101,0.0087,0.0079,0.0037,0.0027,0.0031,0.0,-0.0016,0.0007,-0.0039,-0.0037,0.0033,0.0045,0.0055,0.009,-0.0064,0,0,0,0,0,0.0101,0.0123,0.0122,0.0141,0.0142,0.0127,0.0126,0.0117,0.0105,0.0098,0.0075,0.0052,0.0041,0.0031,0.0015,0.002,0.0003,0.0036,0.0046,0.0055,0.0079,0.008,0.0093,-0.0042,-0.0042,-0.0042,0,0,0.0105,0.0118,0.0126,0.0144,0.0139,0.0167,0.0125,0.0132,0.0158,0.0089,0.0114,0.0083,0.0051,0.0065,0.0064,0.004,0.0084,0.006,0.0067,0.0087,0.0086,0.0099,0.011,-0.004,-0.004,-0.0041,0,0,0.0147,0.0141,0.0179,0.0186,0.0193,0.019,0.0195,0.0193,0.0192,0.0206,0.0171,0.0165,0.0142,0.0138,0.0128,0.0184,0.0138,0.0173,0.0252,0.0252,0.0264,0.0273,0.0268,0.0276,0.0178,0.0179,0.0179,0,0.0152,0.0206,0.0189,0.023,0.0247,0.0208,0.0255,0.0251,0.0248,0.0265,0.0227,0.0231,0.0186,0.0224,0.0238,0.0208,0.0197,0.0206,0.0266,0.0275,0.0284,0.0275,0.0283,0.0184,0.0183,0.0183,0.0182,0,0.023,0.0266,0.0287,0.0333,0.0347,0.0375,0.0374,0.0388,0.0375,0.0378,0.0406,0.0358,0.0367,0.0346,0.0301,0.0349,0.0318,0.0278,0.0236,0.0303,0.029,0.0297,0.0191,0.0189,0.0188,0.0187,0,0,0.0271,0.0332,0.0342,0.0385,0.0405,0.0434,0.0472,0.0513,0.0562,0.0538,0.0609,0.0566,0.0542,0.0531,0.048,0.0467,0.0493,0.0401,0.0398,0.0398,0.0496,0.0439,0.0439,0.0461,0.0462,0.0464,0.0462,0,0.0341,0.0441,0.0454,0.0548,0.0597,0.0585,0.0638,0.0664,0.0669,0.0723,0.068,0.0717,0.0613,0.0625,0.0598,0.0532,0.0516,0.0498,0.0429,0.0428,0.0371,0.0447,0.0403,0.0395,0.0468,0.0469,0.047,0,0.0432,0.0485,0.0586,0.0677,0.07,0.0749,0.0831,0.0877,0.092,0.0924,0.0939,0.0909,0.0909,0.0802,0.0732,0.0725,0.0625,0.0553,0.055,0.0472,0.0384,0.034,0.0404,0.0224,0.0479,0.0478,0.0478,0,0.0495,0.0593,0.0679,0.0704,0.0786,0.0839,0.0892,0.0944,0.1013,0.1067,0.112,0.1095,0.1102,0.0996,0.0836,0.0793,0.0748,0.0669,0.0525,0.0519,0.0458,0.0444,0.0345,0.062,0.062,0.062,0.062,0,0.0586,0.0657,0.0717,0.0766,0.0887,0.0921,0.1054,0.1092,0.1181,0.1292,0.124,0.1316,0.1147,0.1093,0.0925,0.0764,0.0819,0.0568,0.0528,0.049,0.0479,0.0298,0.018,0.0619,0.0619,0.0619,0.0619,0,0.0656,0.0689,0.0794,0.0885,0.0922,0.1015,0.1159,0.1257,0.132,0.1466,0.1499,0.1497,0.1426,0.1245,0.1075,0.0884,0.0608,0.0648,0.0611,0.0566,0.0242,0.0132,-0.001,-0.0103,0.0502,0.0501,0.05,0,0.0705,0.0764,0.0874,0.0942,0.099,0.1119,0.1218,0.1315,0.1426,0.1586,0.1673,0.1655,0.1668,0.1406,0.1069,0.0792,0.0585,0.0537,0.0434,0.0247,0.0094,0.0016,-0.0057,0.0391,0.0389,0.0387,0.0386,0,0.0795,0.0825,0.0906,0.1038,0.1146,0.1278,0.1426,0.153,0.1667,0.1798,0.196,0.1997,0.1743,0.1449,0.1034,0.0812,0.0381,0.0494,0.0318,0.0025,-0.0081,-0.0197,0.0363,0.0373,0.0374,0.0375,0.0376,0.0376,0.0853,0.0921,0.102,0.1151,0.1274,0.1426,0.1549,0.1709,0.1905,0.2119,0.2152,0.2229,0.1786,0.1224,0.0903,0.0262,0.0273,0.0052,-0.0056,-0.0107,-0.0231,0.0299,0.0245,0.0245,0.0246,0.0246,0.0247,0,0.0923,0.1001,0.1131,0.1285,0.1424,0.1475,0.1684,0.1816,0.2041,0.2228,0.2377,0.2194,0.1639,0.1066,0.022,-0.0201,-0.0357,-0.0431,-0.0552,-0.0594,-0.0102,-0.0141,-0.0303,-0.0303,-0.0303,-0.0302,-0.0302,-0.0302,0.0969,0.1088,0.1154,0.1381,0.1492,0.1682,0.1797,0.1988,0.2148,0.2368,0.241,0.243,0.1982,0.0523,-0.0448,-0.0674,-0.0952,-0.1042,-0.1145,-0.0826,-0.0789,-0.0754,-0.0816,-0.1117,-0.1118,-0.1593,-0.1598,-0.1602]}],[{"header":{"parameterUnit":"m.s-1","parameterCategory":2,"la1":30.2991,"la2":30.254,"lo1":-89.0895,"lo2":-89.0444,"dy":0.0017,"dx":0.0017,"nx":28,"ny":28,"refTime":"2025-05-15T09:00:00:Z","depth":"2","parameterNumber":2,"parameterNumberName":"U-component_of_CURRENTS"},"data":[0,0,0,0,0,0,0,0,0,0,0,0,0,0,0,0,0,0,0,0,0,0,0,0,0,0,0,0,0,0,0,0,0,0,0,0,0,0,0,0,0,0,0,0,0,0,0,0,0,0,0,0,0,0,0,0,0,0,0.2835,0.2837,0,0.3028,0.303,0.3032,0.304,0.3038,0.3036,0.3034,0.3199,0.3205,0.3211,0,0,0,0,0,0,0,0,0,0,0,0,0,0.2652,0.2653,0.2835,0.2837,0.284,0.3028,0.3031,0.3033,0.304,0.3038,0.3035,0.3033,0.3197,0.3204,0.3212,0,0,0,0,0,0,0,0,0,0,0,0,0,0.2773,0.2654,0.2834,0.2869,0.2874,0.3028,0.3031,0.3034,0.3041,0.3038,0.3035,0.3032,0.3194,0.3203,0.3213,0.3332,0,0,0.3242,0.3246,0,0,0,0,0,0,0,0,0.2766,0.2779,0.2861,0.2867,0.2873,0.301,0.3027,0.3133,0.3041,0.2974,0.3034,0.303,0.3137,0.3151,0.319,0.334,0.3347,0.3242,0.3248,0.3252,0.3255,0,0,0,0,0,0,0,0.2757,0.2772,0.2908,0.2864,0.2871,0.2937,0.2948,0.3048,0.3067,0.298,0.2982,0.3009,0.3139,0.3181,0.3194,0.3349,0.3242,0.3251,0.3256,0.326,0.3525,0.3527,0,0,0,0,0,0,0.2734,0.2764,0.2902,0.2914,0.2814,0.2942,0.2955,0.2966,0.3067,0.3081,0.3011,0.3009,0.3167,0.3183,0.32,0.3317,0.3252,0.3261,0.3266,0.3524,0.3526,0.3527,0,0,0,0,0,0,0.2729,0.2744,0.2894,0.2847,0.2871,0.2947,0.2961,0.2972,0.3024,0.3092,0.3104,0.3052,0.3165,0.3187,0.3297,0.3324,0.3265,0.3274,0.3522,0.3525,0.3526,0.357,0,0,0,0,0,0,0.2723,0.2741,0.2753,0.2845,0.2873,0.3036,0.2964,0.2978,0.3046,0.3044,0.3132,0.3143,0.3164,0.3283,0.3307,0.3336,0.3281,0.3521,0.3523,0.3526,0.3567,0.3573,0.3579,0,0,0,0,0,0.2715,0.2771,0.2751,0.2769,0.2881,0.3041,0.3065,0.3105,0.3051,0.3127,0.3143,0.3141,0.3313,0.3295,0.3321,0.3353,0.3519,0.3523,0.3526,0.3564,0.3572,0.3579,0,0,0,0,0,0,0.2709,0.2779,0.276,0.2831,0.294,0.3044,0.312,0.3124,0.3199,0.318,0.3198,0.3216,0.3308,0.3337,0.3314,0.3431,0.3402,0.3411,0.3422,0.3431,0.3436,0.3447,0.3289,0,0,0,0,0,0.2707,0.2763,0.2846,0.2916,0.2964,0.3034,0.3097,0.3129,0.3203,0.3231,0.3272,0.3303,0.3347,0.3392,0.3451,0.3557,0.3577,0.3579,0.3585,0.359,0.3615,0.367,0.3684,0.3537,0.3537,0.3537,0,0,0.2718,0.2775,0.2799,0.292,0.2992,0.307,0.3067,0.3193,0.3226,0.3242,0.3308,0.3348,0.338,0.3467,0.3509,0.3496,0.3641,0.3594,0.3599,0.3621,0.3675,0.3689,0.3702,0.354,0.3539,0.3539,0,0,0.2818,0.2827,0.2913,0.2992,0.3119,0.3147,0.3181,0.3288,0.3309,0.3402,0.3377,0.3444,0.3535,0.3559,0.3574,0.3663,0.367,0.3663,0.3718,0.3771,0.3784,0.3796,0.3832,0.3847,0.3668,0.3668,0.3669,0,0.2831,0.2911,0.2977,0.3082,0.3123,0.3167,0.3244,0.3293,0.3411,0.3433,0.3426,0.3533,0.357,0.3639,0.3657,0.3679,0.3705,0.3686,0.378,0.3792,0.3803,0.3838,0.3853,0.3671,0.3671,0.367,0.367,0,0.3,0.3033,0.3107,0.3192,0.3264,0.3357,0.3399,0.3452,0.3447,0.3484,0.3576,0.364,0.3701,0.3711,0.3718,0.3807,0.3798,0.3778,0.3761,0.3821,0.3853,0.3868,0.3674,0.3674,0.3673,0.3672,0,0,0.3086,0.3187,0.3204,0.321,0.3307,0.3379,0.3422,0.3488,0.3512,0.36,0.3657,0.3734,0.3779,0.3801,0.3825,0.388,0.3977,0.3874,0.3876,0.3911,0.4095,0.3936,0.3938,0.3976,0.3979,0.3982,0.4083,0,0.3181,0.3301,0.3346,0.341,0.3441,0.3461,0.3498,0.3557,0.3599,0.3676,0.3728,0.3816,0.3804,0.3862,0.3913,0.4008,0.4022,0.3952,0.4034,0.4036,0.3888,0.3951,0.3666,0.3719,0.4098,0.41,0.4102,0,0.3318,0.3356,0.3424,0.3434,0.346,0.3508,0.3539,0.3601,0.3694,0.3741,0.3833,0.3891,0.4031,0.398,0.4143,0.4108,0.4093,0.4122,0.4125,0.3978,0.3906,0.3724,0.3733,0.4128,0.4126,0.4124,0.4122,0,0.3305,0.3393,0.341,0.3429,0.3479,0.3508,0.3542,0.3626,0.3693,0.3817,0.3884,0.4028,0.4129,0.4188,0.4244,0.4224,0.4376,0.4349,0.4161,0.415,0.3923,0.3885,0.4368,0.4368,0.4368,0.4368,0.4367,0,0.3354,0.3369,0.3401,0.3416,0.3445,0.3506,0.3583,0.3631,0.3764,0.3863,0.3938,0.4031,0.4187,0.4275,0.4295,0.4298,0.4411,0.4192,0.4173,0.3926,0.3889,0.4253,0.4238,0.4371,0.4371,0.437,0.4369,0,0.3356,0.3366,0.3394,0.3435,0.344,0.3484,0.3599,0.3658,0.378,0.3917,0.3972,0.4113,0.4236,0.4304,0.4423,0.435,0.4375,0.4284,0.3976,0.3916,0.4105,0.4092,0.4174,0.417,0.4166,0.4163,0.416,0,0.336,0.3371,0.3404,0.3412,0.3439,0.35,0.3528,0.3648,0.3707,0.3946,0.398,0.4149,0.415,0.4246,0.4208,0.4187,0.4257,0.386,0.3748,0.4116,0.409,0.4083,0.4075,0.3476,0.3468,0.3461,0.3456,0,0.3365,0.3388,0.3416,0.3421,0.3438,0.3473,0.3522,0.3545,0.3702,0.3791,0.389,0.3934,0.399,0.3845,0.3795,0.3744,0.3874,0.3719,0.4219,0.3546,0.3459,0.3432,0.3448,0.3397,0.3403,0.3407,0.341,0.3413,0.3372,0.339,0.3409,0.3414,0.3434,0.3405,0.3383,0.3403,0.3445,0.3479,0.3641,0.3558,0.3588,0.3348,0.3257,0.3228,0.3474,0.3345,0.3366,0.3394,0.3271,0.3179,0.3043,0.3047,0.305,0.3053,0.3055,0,0.3323,0.3342,0.3376,0.3361,0.3335,0.3372,0.3336,0.3224,0.3139,0.3186,0.3177,0.2871,0.2742,0.2802,0.2655,0.2636,0.2613,0.2553,0.2527,0.2588,0.2642,0.2481,0.2044,0.204,0.2037,0.2034,0,0,0.3293,0.3281,0.3286,0.3215,0.3217,0.3096,0.3024,0.2895,0.2818,0.2566,0.2495,0.2577,0.2688,0.2305,0.2279,0.2152,0.2343,0.2064,0.2885,0.2916,0.2966,0.3119,0.2941,0,0,0,0,0]},{"header":{"parameterUnit":"m.s-1","parameterCategory":2,"la1":30.2991,"la2":30.254,"lo1":-89.0895,"lo2":-89.0444,"dy":0.0017,"dx":0.0017,"nx":28,"ny":28,"refTime":"2025-05-15T09:00:00:Z","depth":"2","parameterNumber":3,"parameterNumberName":"V-component_of_CURRENTS"},"data":[0,0,0,0,0,0,0,0,0,0,0,0,0,0,0,0,0,0,0,0,0,0,0,0,0,0,0,0,0,0,0,0,0,0,0,0,0,0,0,0,0,0,0,0,0,0,0,0,0,0,0,0,0,0,0,0,0,0,-0.006,-0.006,0,-0.0105,-0.0106,-0.0107,-0.0134,-0.0134,-0.0133,-0.0133,-0.017,-0.0172,-0.0173,0,0,0,0,0,0,0,0,0,0,0,0,0,-0.0081,-0.008,-0.006,-0.006,-0.006,-0.0105,-0.0106,-0.0107,-0.0134,-0.0134,-0.0133,-0.0133,-0.017,-0.0171,-0.0173,0,0,0,0,0,0,0,0,0,0,0,0,0,-0.0097,-0.008,-0.006,-0.0077,-0.0078,-0.0105,-0.0106,-0.0107,-0.0134,-0.0134,-0.0133,-0.0133,-0.017,-0.0171,-0.0173,-0.0189,0,0,-0.0178,-0.0179,0,0,0,0,0,0,0,0,-0.0096,-0.0096,-0.0074,-0.0076,-0.0078,-0.0111,-0.0127,-0.0133,-0.0134,-0.0117,-0.0133,-0.0133,-0.0148,-0.0151,-0.0165,-0.0191,-0.0193,-0.0178,-0.018,-0.018,-0.0181,0,0,0,0,0,0,0,-0.0095,-0.0095,-0.0081,-0.0074,-0.0076,-0.0111,-0.0112,-0.0129,-0.0136,-0.0118,-0.0119,-0.0119,-0.0149,-0.0164,-0.0166,-0.0193,-0.0178,-0.018,-0.0181,-0.0182,-0.0158,-0.0156,0,0,0,0,0,0,-0.0078,-0.0093,-0.008,-0.0082,-0.0082,-0.011,-0.0112,-0.0103,-0.0136,-0.0139,-0.0119,-0.012,-0.0161,-0.0164,-0.0168,-0.0117,-0.018,-0.0182,-0.0183,-0.016,-0.0157,-0.0156,0,0,0,0,0,0,-0.0078,-0.0076,-0.0078,-0.0087,-0.0089,-0.0109,-0.01,-0.0104,-0.011,-0.0136,-0.014,-0.0118,-0.0161,-0.0165,-0.015,-0.0121,-0.0183,-0.0184,-0.0162,-0.0159,-0.0157,-0.0062,0,0,0,0,0,0,-0.0078,-0.0075,-0.0069,-0.0085,-0.0088,-0.0069,-0.01,-0.0105,-0.0109,-0.011,-0.0137,-0.0141,-0.0161,-0.0147,-0.0152,-0.0125,-0.0186,-0.0164,-0.016,-0.0157,-0.0067,-0.0056,-0.0047,0,0,0,0,0,-0.0079,-0.0056,-0.0068,-0.0067,-0.0076,-0.0067,-0.0071,-0.0088,-0.0108,-0.0096,-0.0107,-0.0139,-0.0131,-0.0147,-0.0153,-0.0126,-0.0165,-0.0161,-0.0158,-0.0072,-0.0059,-0.0048,0,0,0,0,0,0,-0.0065,-0.0058,-0.0071,-0.0049,-0.005,-0.007,-0.0066,-0.0082,-0.0086,-0.0086,-0.012,-0.0123,-0.0099,-0.0124,-0.0142,-0.0108,-0.0153,-0.015,-0.0085,-0.0074,-0.0064,-0.0038,-0.0187,0,0,0,0,0,-0.0058,-0.0037,-0.0043,-0.0026,-0.0025,-0.0049,-0.0052,-0.0057,-0.0062,-0.0065,-0.0074,-0.0086,-0.0092,-0.009,-0.0096,-0.0082,-0.0121,-0.0067,-0.0057,-0.0049,-0.003,-0.0067,-0.0059,-0.0143,-0.0143,-0.0143,0,0,-0.0052,-0.0042,-0.0034,-0.0021,-0.0031,-0.0001,-0.005,-0.0037,-0.0008,-0.0067,-0.0028,-0.0051,-0.0079,-0.0053,-0.0046,-0.0069,-0.0045,-0.0044,-0.0036,-0.0023,-0.0062,-0.0054,-0.0047,-0.0141,-0.0141,-0.0142,0,0,-0.0002,-0.0017,0.0026,0.0033,0.0042,0.0033,0.0042,0.0041,0.0041,0.0069,0.0037,0.0038,0.0033,0.0025,0.0014,0.0074,0.0008,0.0069,0.0139,0.0103,0.011,0.0115,0.0071,0.0071,0.0073,0.0073,0.0074,0,0.0005,0.0059,0.0038,0.0085,0.0099,0.0057,0.0107,0.0102,0.0113,0.0119,0.0102,0.0101,0.0073,0.0093,0.0118,0.0096,0.0061,0.0093,0.0115,0.012,0.0123,0.0076,0.0076,0.0078,0.0078,0.0077,0.0077,0,0.0097,0.0132,0.0156,0.0204,0.0216,0.0247,0.0244,0.0256,0.0244,0.024,0.0262,0.0229,0.023,0.0216,0.0185,0.0205,0.0165,0.013,0.0083,0.0137,0.0085,0.0082,0.0086,0.0084,0.0082,0.0081,0,0,0.0141,0.0207,0.0218,0.0255,0.028,0.0303,0.0341,0.0364,0.039,0.0386,0.0425,0.0403,0.0377,0.0365,0.0322,0.0291,0.0276,0.0232,0.0227,0.0185,0.0192,0.0124,0.0113,0.024,0.024,0.0241,0.0142,0,0.0219,0.0321,0.034,0.043,0.0472,0.0452,0.0493,0.0505,0.05,0.0529,0.0481,0.0506,0.0436,0.0444,0.0403,0.034,0.0276,0.0306,0.0149,0.0144,0.0075,0.0111,0.0142,0.0054,0.0139,0.0139,0.0138,0,0.0319,0.0367,0.0467,0.0535,0.0553,0.0605,0.0643,0.0684,0.069,0.0686,0.0685,0.0649,0.0647,0.0555,0.0455,0.0481,0.034,0.0254,0.0247,0.0153,0.0072,0.0015,0.0045,0.0133,0.0134,0.0134,0.0134,0,0.0367,0.0465,0.0543,0.0566,0.0632,0.0674,0.0714,0.0734,0.0787,0.0801,0.0829,0.0796,0.0804,0.0664,0.0489,0.0483,0.0335,0.0301,0.0085,0.0078,0.006,0.005,0.0162,0.0162,0.0162,0.0163,0.0163,0,0.0451,0.0515,0.0573,0.0616,0.0705,0.0741,0.0842,0.0855,0.0924,0.1008,0.0929,0.097,0.0828,0.0722,0.0537,0.0322,0.0365,0.0109,0.0055,0.0092,0.0087,0.0122,0.0118,0.0159,0.016,0.016,0.0161,0,0.0509,0.0543,0.063,0.0705,0.0735,0.0805,0.0938,0.101,0.1051,0.116,0.1182,0.1137,0.1023,0.0807,0.0587,0.0394,0.0182,0.0047,0.0096,0.005,-0.0063,-0.006,-0.0131,-0.0134,-0.0136,-0.0139,-0.014,0,0.0552,0.0602,0.0687,0.0738,0.0783,0.0893,0.097,0.106,0.1143,0.1261,0.1309,0.1244,0.1161,0.0804,0.0494,0.0153,0.01,-0.0084,-0.0097,-0.0044,-0.0089,-0.0082,-0.0076,-0.0087,-0.0088,-0.0089,-0.009,0,0.0615,0.064,0.0706,0.0812,0.0901,0.1008,0.1129,0.122,0.1345,0.143,0.1497,0.1452,0.1122,0.0815,0.0346,0.0118,0.0001,-0.0118,-0.0064,-0.0023,-0.0012,-0.0054,-0.0047,-0.0099,-0.0098,-0.0098,-0.0097,-0.0097,0.0645,0.0698,0.0782,0.0886,0.1007,0.1131,0.1245,0.1356,0.1514,0.1651,0.1596,0.1517,0.1168,0.0582,0.0221,-0.0118,-0.0101,-0.0234,-0.0227,-0.0219,-0.0201,-0.0196,-0.0315,-0.0315,-0.0316,-0.0316,-0.0316,0,0.0656,0.0743,0.0848,0.0991,0.1136,0.1195,0.1362,0.1449,0.1623,0.1692,0.1709,0.1336,0.0978,0.0605,0.0095,-0.0251,-0.025,-0.0348,-0.0254,-0.0244,-0.0235,-0.0214,-0.0334,-0.0334,-0.0335,-0.0336,0,0,0.0664,0.0736,0.0789,0.1037,0.1198,0.1385,0.1486,0.1619,0.1675,0.169,0.1662,0.1525,0.1061,0.0681,0.0249,-0.0023,-0.0059,-0.009,-0.0043,0.0129,0.0142,-0.0142,-0.0097,0,0,0,0,0]}],[{"header":{"parameterUnit":"m.s-1","parameterCategory":2,"la1":30.2991,"la2":30.254,"lo1":-89.0895,"lo2":-89.0444,"dy":0.0017,"dx":0.0017,"nx":28,"ny":28,"refTime":"2025-05-15T09:00:00:Z","depth":"4","parameterNumber":2,"parameterNumberName":"U-component_of_CURRENTS"},"data":[0,0,0,0,0,0,0,0,0,0,0,0,0,0,0,0,0,0,0,0,0,0,0,0,0,0,0,0,0,0,0,0,0,0,0,0,0,0,0,0,0,0,0,0,0,0,0,0,0,0,0,0,0,0,0,0,0,0,0.1269,0.1269,0,0.1199,0.1197,0.1195,0.1274,0.1278,0.1282,0.1286,0.1311,0.1308,0.1305,0,0,0,0,0,0,0,0,0,0,0,0,0,0.1304,0.1304,0.1269,0.1269,0.1269,0.1199,0.1197,0.1195,0.1274,0.1278,0.1283,0.1288,0.1312,0.1308,0.1305,0,0,0,0,0,0,0,0,0,0,0,0,0,0.1258,0.1303,0.1269,0.1307,0.131,0.1199,0.1197,0.1195,0.1273,0.1279,0.1284,0.129,0.1313,0.1308,0.1304,0.1161,0,0,0.1291,0.1289,0,0,0,0,0,0,0,0,0.1261,0.1256,0.1301,0.1304,0.1308,0.126,0.1219,0.1191,0.1271,0.1277,0.1286,0.1293,0.1304,0.1301,0.126,0.1162,0.1163,0.129,0.1287,0.1286,0.1284,0,0,0,0,0,0,0,0.1264,0.1258,0.1231,0.1301,0.1305,0.1271,0.1271,0.1212,0.1253,0.1277,0.1285,0.129,0.1306,0.1263,0.1261,0.1163,0.129,0.1286,0.1284,0.1282,0.1291,0.1294,0,0,0,0,0,0,0.1294,0.1262,0.1234,0.123,0.1309,0.1267,0.1267,0.1261,0.1252,0.1258,0.1285,0.1294,0.1268,0.1266,0.1263,0.1418,0.1286,0.1281,0.1279,0.1288,0.1292,0.1295,0,0,0,0,0,0,0.1295,0.1291,0.1237,0.1253,0.1245,0.1263,0.1254,0.1257,0.1272,0.1259,0.1267,0.1307,0.1273,0.1269,0.1339,0.1409,0.1279,0.1275,0.1285,0.1289,0.1293,0.1521,0,0,0,0,0,0,0.1295,0.1291,0.1298,0.1254,0.1246,0.1203,0.125,0.1252,0.1268,0.128,0.1277,0.1283,0.1277,0.1346,0.1335,0.14,0.1272,0.1281,0.1287,0.1292,0.151,0.1533,0.1552,0,0,0,0,0,0.1297,0.1275,0.1298,0.1296,0.1254,0.1203,0.1194,0.1219,0.1264,0.1255,0.1332,0.1286,0.1372,0.1345,0.1331,0.1397,0.1279,0.1285,0.1292,0.1501,0.1528,0.1552,0,0,0,0,0,0,0.1298,0.128,0.1306,0.1284,0.1268,0.1222,0.1214,0.1229,0.1263,0.1298,0.1315,0.1324,0.1421,0.1357,0.1327,0.1415,0.1316,0.132,0.148,0.1505,0.1526,0.1543,0.1268,0,0,0,0,0,0.1299,0.1277,0.1267,0.1249,0.1249,0.1236,0.1224,0.1232,0.1254,0.1274,0.1314,0.1353,0.1411,0.1427,0.1442,0.1454,0.141,0.1487,0.1508,0.1527,0.1531,0.1566,0.1592,0.1316,0.1316,0.1316,0,0,0.129,0.1282,0.127,0.1248,0.1237,0.1258,0.1242,0.122,0.1291,0.1265,0.1397,0.1425,0.1437,0.1519,0.1548,0.1487,0.1581,0.1535,0.1552,0.1545,0.1576,0.1603,0.1626,0.1321,0.132,0.1319,0,0,0.1256,0.1263,0.1244,0.1224,0.1217,0.1253,0.1265,0.1264,0.1327,0.1423,0.1469,0.1562,0.1602,0.1656,0.1684,0.1803,0.1707,0.1785,0.189,0.1926,0.1949,0.1969,0.1949,0.1965,0.1779,0.178,0.178,0,0.1256,0.1259,0.1228,0.1206,0.1248,0.1277,0.1314,0.1352,0.1399,0.1472,0.1513,0.166,0.1689,0.18,0.1891,0.1857,0.1829,0.1804,0.1957,0.1975,0.1992,0.1966,0.1981,0.1792,0.179,0.1789,0.1788,0,0.1206,0.1232,0.1217,0.1261,0.1285,0.1304,0.1385,0.1472,0.1602,0.1647,0.1804,0.1859,0.1941,0.1977,0.1998,0.2113,0.204,0.1999,0.1899,0.2034,0.1997,0.2008,0.1808,0.1804,0.1801,0.1798,0,0,0.1147,0.1197,0.1195,0.1258,0.1332,0.1348,0.1519,0.167,0.1773,0.1877,0.2015,0.2174,0.2165,0.2193,0.219,0.2243,0.2379,0.2186,0.2183,0.2177,0.2418,0.226,0.2256,0.2365,0.2368,0.2371,0.2346,0,0.1157,0.1216,0.1233,0.1343,0.1414,0.1511,0.1655,0.177,0.1918,0.2041,0.2129,0.2236,0.2249,0.2294,0.2361,0.2367,0.2419,0.2386,0.2276,0.2272,0.2126,0.2268,0.2381,0.2354,0.2356,0.2358,0.2359,0,0.108,0.1187,0.1317,0.1462,0.1495,0.1576,0.1835,0.1925,0.2088,0.2188,0.2294,0.2322,0.2441,0.2426,0.2508,0.248,0.2486,0.2484,0.2481,0.2258,0.2137,0.2187,0.2378,0.2377,0.2375,0.2374,0.2373,0,0.1087,0.1202,0.1373,0.1404,0.1589,0.17,0.1817,0.1983,0.2071,0.2247,0.2323,0.2423,0.2488,0.2526,0.2556,0.2543,0.2605,0.2564,0.2416,0.2401,0.2446,0.2424,0.2639,0.2639,0.264,0.264,0.264,0,0.1067,0.1175,0.139,0.1465,0.1635,0.1717,0.1867,0.1998,0.2139,0.2202,0.2349,0.2404,0.253,0.2569,0.2573,0.2519,0.2615,0.2458,0.2406,0.2538,0.2528,0.2453,0.2431,0.2639,0.2639,0.2639,0.2639,0,0.0977,0.1145,0.128,0.153,0.1623,0.1695,0.1865,0.193,0.2103,0.2198,0.2259,0.2425,0.2486,0.2548,0.2604,0.2524,0.2495,0.2453,0.2575,0.2525,0.2256,0.2247,0.2276,0.227,0.2266,0.2262,0.2259,0,0.0946,0.1033,0.1273,0.134,0.1454,0.1606,0.17,0.1907,0.196,0.2167,0.2182,0.2331,0.2417,0.2345,0.2438,0.2417,0.2403,0.235,0.2346,0.2283,0.223,0.2228,0.2225,0.2252,0.2251,0.225,0.2248,0,0.0875,0.0944,0.1041,0.1217,0.1336,0.1437,0.1588,0.1647,0.1848,0.2022,0.2079,0.2131,0.2195,0.2237,0.2258,0.2236,0.2362,0.2302,0.2311,0.2308,0.2254,0.2205,0.2208,0.2233,0.2235,0.2236,0.2237,0,0.0757,0.0767,0.0906,0.1028,0.1156,0.1252,0.1352,0.1464,0.1583,0.1846,0.1844,0.2002,0.2155,0.2141,0.2136,0.2132,0.2107,0.2022,0.2046,0.2064,0.2014,0.1916,0.1767,0,0,0,0,0,0.0645,0.0679,0.0743,0.0869,0.096,0.109,0.1275,0.1376,0.1623,0.1609,0.1738,0.1792,0.1851,0.192,0.1877,0.2039,0.2105,0.1976,0.2016,0.2146,0.2164,0.2129,0,0,0,0,0,0,0.0584,0.0626,0.0692,0.0732,0.0788,0.0921,0.1047,0.1199,0.1218,0.1451,0.1493,0.1653,0.1735,0.185,0.1829,0.1853,0.1834,0.2082,0.2076,0.2136,0.2153,0.2167,0.2137,0,0,0,0,0]},{"header":{"parameterUnit":"m.s-1","parameterCategory":2,"la1":30.2991,"la2":30.254,"lo1":-89.0895,"lo2":-89.0444,"dy":0.0017,"dx":0.0017,"nx":28,"ny":28,"refTime":"2025-05-15T09:00:00:Z","depth":"4","parameterNumber":3,"parameterNumberName":"V-component_of_CURRENTS"},"data":[0,0,0,0,0,0,0,0,0,0,0,0,0,0,0,0,0,0,0,0,0,0,0,0,0,0,0,0,0,0,0,0,0,0,0,0,0,0,0,0,0,0,0,0,0,0,0,0,0,0,0,0,0,0,0,0,0,0,0.002,0.0021,0,0.0061,0.0062,0.0063,0.0042,0.0041,0.0039,0.0038,0.0015,0.0016,0.0017,0,0,0,0,0,0,0,0,0,0,0,0,0,-0.005,-0.0049,0.002,0.0021,0.0021,0.0061,0.0062,0.0063,0.0042,0.0041,0.0039,0.0037,0.0015,0.0016,0.0017,0,0,0,0,0,0,0,0,0,0,0,0,0,-0.0012,-0.0048,0.002,0.0012,0.0012,0.0061,0.0062,0.0063,0.0043,0.004,0.0038,0.0036,0.0015,0.0016,0.0017,0.0067,0,0,0.002,0.0021,0,0,0,0,0,0,0,0,-0.0014,-0.0009,0.0013,0.0013,0.0012,0.0041,0.0028,0.006,0.0043,0.0035,0.0038,0.0035,0.0017,0.0018,0.0037,0.0066,0.0065,0.002,0.0021,0.0022,0.0022,0,0,0,0,0,0,0,-0.0017,-0.001,0.004,0.0014,0.0013,0.0015,0.0018,0.0035,0.0039,0.0036,0.0033,0.0032,0.0016,0.0036,0.0036,0.0064,0.002,0.0021,0.0022,0.0022,0.0014,0.0013,0,0,0,0,0,0,-0.0028,-0.0013,0.0039,0.0041,-0.0011,0.0018,0.0021,0.0037,0.0041,0.0038,0.0034,0.0031,0.0035,0.0035,0.0035,0.0015,0.0022,0.0023,0.0023,0.0014,0.0013,0.0012,0,0,0,0,0,0,-0.0029,-0.0023,0.0037,0.0011,0.0018,0.002,0.0039,0.0039,0.0052,0.0039,0.0036,0.0045,0.0033,0.0033,0.002,0.0016,0.0023,0.0024,0.0015,0.0014,0.0013,0.0025,0,0,0,0,0,0,-0.0031,-0.0023,-0.0015,0.0011,0.0019,0.0076,0.004,0.0041,0.0053,0.005,0.0048,0.0044,0.0032,0.0018,0.0021,0.0018,0.0025,0.0017,0.0015,0.0013,0.0025,0.0024,0.0023,0,0,0,0,0,-0.0033,-0.0005,-0.0014,-0.0008,0.0031,0.0077,0.0084,0.0079,0.0056,0.008,0.0044,0.0044,0.0008,0.0019,0.0022,0.0019,0.0017,0.0015,0.0013,0.0026,0.0024,0.0023,0,0,0,0,0,0,-0.0031,-0.0004,-0.0014,0.002,0.0046,0.0072,0.0094,0.0087,0.0085,0.0072,0.0046,0.0041,0.0019,0.0021,0.0033,0.0007,0.0009,0.0007,0.0017,0.0016,0.0014,0.0034,0.0026,0,0,0,0,0,-0.0027,0.0004,0.0024,0.0054,0.0068,0.0081,0.0096,0.0097,0.0097,0.0096,0.0081,0.0053,0.002,0.0018,-0.0,0.001,-0.0012,0.0003,0.0002,0.0001,0.0016,-0.0035,-0.0039,0.0006,0.0006,0.0006,0,0,-0.0019,0.0001,0.0016,0.0056,0.0077,0.01,0.0087,0.0124,0.0122,0.0094,0.0085,0.0053,0.0016,0.0001,-0.0007,0.0003,-0.0028,-0.0002,-0.0002,0.0014,-0.0038,-0.0042,-0.0046,0.0004,0.0005,0.0005,0,0,0.0024,0.0036,0.0074,0.0095,0.0126,0.013,0.0138,0.0162,0.0152,0.0147,0.0096,0.0062,0.0046,0.0009,-0.0015,-0.0026,-0.0043,-0.0034,-0.0008,-0.0058,-0.0062,-0.0065,-0.0114,-0.0121,-0.0023,-0.0023,-0.0023,0,0.0027,0.007,0.0093,0.013,0.0137,0.0139,0.0166,0.0166,0.0171,0.0158,0.0141,0.0071,0.0044,-0.0002,-0.0017,-0.0027,-0.0056,0.0003,-0.0059,-0.0062,-0.0066,-0.0115,-0.0123,-0.0023,-0.0023,-0.0023,-0.0023,0,0.0096,0.0116,0.0146,0.0176,0.0195,0.0226,0.0218,0.0225,0.0198,0.0182,0.0138,0.0093,0.0055,0.0029,0.0004,-0.0038,-0.0052,-0.0064,-0.0049,-0.007,-0.012,-0.0129,-0.0022,-0.0023,-0.0023,-0.0023,0,0,0.0136,0.018,0.0187,0.0198,0.0216,0.0245,0.0236,0.0233,0.0224,0.0198,0.0175,0.0104,0.0085,0.0058,0.0018,-0.0021,-0.0085,-0.0043,-0.0046,-0.0081,-0.0197,-0.0178,-0.0187,-0.0107,-0.0108,-0.0109,-0.0226,0,0.0175,0.0229,0.0241,0.0275,0.0295,0.0286,0.028,0.0271,0.0246,0.0227,0.0164,0.0129,0.0092,0.0076,0.0026,-0.0057,-0.0106,-0.0052,-0.0179,-0.0182,-0.0156,-0.0195,-0.0113,-0.0233,-0.0235,-0.0237,-0.0238,0,0.0237,0.0256,0.0291,0.0308,0.0319,0.0334,0.0327,0.0327,0.0289,0.0268,0.0227,0.0183,0.0117,0.009,-0.0052,-0.0015,-0.0098,-0.0165,-0.0171,-0.0157,-0.018,-0.0207,-0.0255,-0.0254,-0.0252,-0.0251,-0.025,0,0.0249,0.0295,0.0314,0.0322,0.0338,0.035,0.0359,0.0338,0.0349,0.0303,0.0302,0.0209,0.0175,0.0057,-0.0066,-0.0065,-0.0223,-0.0243,-0.031,-0.031,-0.0295,-0.029,-0.0346,-0.0346,-0.0346,-0.0346,-0.0345,0,0.028,0.03,0.0326,0.0333,0.037,0.0376,0.0407,0.0398,0.0396,0.0413,0.0335,0.0319,0.0168,0.0068,-0.006,-0.0206,-0.0223,-0.0309,-0.0339,-0.0291,-0.0284,-0.0303,-0.0296,-0.035,-0.0349,-0.0348,-0.0347,0,0.0299,0.0304,0.0339,0.0362,0.0376,0.041,0.0467,0.0488,0.0475,0.0497,0.0491,0.0399,0.0267,0.0111,-0.0085,-0.0183,-0.0335,-0.0384,-0.0317,-0.0341,-0.0396,-0.0387,-0.048,-0.0481,-0.0481,-0.0481,-0.0481,0,0.0318,0.0329,0.0369,0.04,0.0418,0.047,0.0503,0.0521,0.0556,0.0546,0.0559,0.045,0.037,0.0109,-0.007,-0.0317,-0.0347,-0.0432,-0.0418,-0.0389,-0.041,-0.0401,-0.0392,-0.0482,-0.0482,-0.0482,-0.0482,0,0.0349,0.0358,0.039,0.0444,0.049,0.0553,0.061,0.064,0.0663,0.0656,0.0621,0.049,0.034,0.0127,-0.0056,-0.0236,-0.0381,-0.0435,-0.0436,-0.0424,-0.0392,-0.041,-0.0401,-0.0483,-0.0483,-0.0482,-0.0482,0,0.0386,0.0414,0.0448,0.0503,0.0565,0.062,0.0645,0.0686,0.0714,0.0707,0.0689,0.0522,0.0426,0.0168,-0.0008,-0.0174,-0.0223,-0.0282,-0.0292,-0.0293,-0.0199,-0.0128,-0.0166,0,0,0,0,0,0.0422,0.0449,0.0501,0.0556,0.0621,0.0647,0.0711,0.073,0.0747,0.074,0.0726,0.059,0.0336,0.0211,0.005,-0.0032,-0.0265,-0.023,-0.034,-0.0488,-0.0487,-0.0406,0,0,0,0,0,0,0.0443,0.0497,0.0504,0.0594,0.0632,0.07,0.0735,0.0746,0.0746,0.0738,0.0605,0.0546,0.0293,0.0434,0.0046,-0.0008,-0.0101,-0.0349,-0.0353,-0.0488,-0.0487,-0.0486,-0.0403,0,0,0,0,0]}]]